User: anonymous   Login
Location: Budapest
(47.4979°N, 19.0402°E)
Time: 23:02:16
(UTC+01:00)
Language:

ISS - Orbit

View from above orbital plane
View from above orbital plane
View from above satellite
View from above satellite

Ground track
Ground track

The orbit data is extracted from the following two-line orbital elements,

1 25544U 98067A   20300.50099065  .00001432  00000-0  33766-4 0  9998
2 25544  51.6452  58.7172 0001662  63.4233  32.8573 15.49336518252373
Epoch (UTC): 26 October 2020 12:01:25
Eccentricity: 0.0001662
inclination: 51.6452°
perigee height: 417 km
apogee height: 420 km
right ascension of ascending node: 58.7172°
argument of perigee: 63.4233°
revolutions per day: 15.49336518
mean anomaly at epoch: 32.8573°
orbit number at epoch: 25237

The dashed part of the orbit path shows where the satellite is in the earth's shadow,  

DLR